FW4380 Weather Reports


Display with metric or nautical units.
time (UTC)temp
F
wind
direction
speed
MPH
gust
MPH
rain 1hr
in
rain 24hr
in
rain mn
in
humidity
%
barometer
mb
20240620024105 76 47 3.0 7.0 0.00 0.00 0.00 75 1025.9
20240620023559 77 53 3.0 7.0 0.00 0.00 0.00 75 1025.9
20240620023058 77 66 3.0 7.0 0.00 0.00 0.00 75 1025.8
20240620022827 77 61 3.0 8.0 0.00 0.00 0.00 75 1025.8
20240620022057 77 49 3.0 8.0 0.00 0.00 0.00 75 1025.8
20240620021557 77 78 3.0 9.0 0.00 0.00 0.00 75 1025.8
20240620021057 77 103 3.0 9.0 0.00 0.00 0.00 75 1025.8
20240620020557 77 113 3.0 9.0 0.00 0.00 0.00 76 1025.7
20240620020057 77 102 3.0 9.0 0.00 0.00 0.00 74 1025.6
20240620015556 77 84 3.0 7.0 0.00 0.00 0.00 75 1025.6
20240620015053 77 45 3.0 7.0 0.00 0.00 0.00 76 1025.6
20240620014556 77 80 3.0 10.0 0.00 0.00 0.00 75 1025.5
20240620014053 77 110 3.0 10.0 0.00 0.00 0.00 76 1025.5
20240620013552 77 99 3.0 9.0 0.00 0.00 0.00 76 1025.5
20240620013051 77 59 2.0 6.0 0.00 0.00 0.00 76 1025.5
20240620012552 77 80 2.0 7.0 0.00 0.00 0.00 75 1025.3
20240620012322 77 55 3.0 7.0 0.00 0.00 0.00 75 1025.3
20240620011552 77 63 3.0 8.0 0.00 0.00 0.00 75 1025.2
20240620011050 77 57 3.0 8.0 0.00 0.00 0.00 75 1025.2
20240620011046 78 118 3.0 7.0 0.00 0.00 0.00 74 1025.1
20240620010307 78 62 3.0 7.0 0.00 0.00 0.00 74 1025.2
20240620005537 78 121 3.0 7.0 0.00 0.00 0.00 74 1025.2
20240620005038 78 57 3.0 10.0 0.00 0.00 0.00 74 1025.1
20240620004535 78 114 4.0 10.0 0.00 0.00 0.00 74 1025.1
20240620004035 78 100 4.0 10.0 0.00 0.00 0.00 73 1025.1
20240620003535 78 96 4.0 10.0 0.00 0.00 0.00 74 1025.1
20240620003034 78 95 4.0 10.0 0.00 0.00 0.00 73 1025.1
20240620002536 78 88 4.0 10.0 0.00 0.00 0.00 73 1025.0
20240620002033 78 97 5.0 10.0 0.00 0.00 0.00 73 1025.0
20240620001531 79 101 5.0 11.0 0.00 0.00 0.00 72 1025.0
20240620001032 79 103 4.0 11.0 0.00 0.00 0.00 73 1025.0
20240620000531 79 112 3.0 8.0 0.00 0.00 0.00 73 1025.0
20240620000030 79 92 4.0 11.0 0.00 0.00 0.00 72 1025.0
20240619235529 79 91 5.0 11.0 0.00 0.00 0.00 72 1025.0
20240619235029 80 97 5.0 11.0 0.00 0.00 0.00 72 1025.1
20240619234529 80 34 5.0 11.0 0.00 0.00 0.00 70 1025.1
20240619234300 80 100 4.0 9.0 0.00 0.00 0.00 71 1025.1
20240619233532 80 115 3.0 9.0 0.00 0.00 0.00 71 1025.1
20240619233025 80 82 3.0 8.0 0.00 0.00 0.00 71 1025.1
20240619232519 80 96 3.0 10.0 0.00 0.00 0.00 70 1025.1
20240619232244 80 52 5.0 10.0 0.00 0.00 0.00 71 1025.1
20240619231739 80 95 5.0 11.0 0.00 0.00 0.00 70 1025.1
20240619231001 81 120 5.0 11.0 0.00 0.00 0.00 68 1025.1
20240619230456 82 91 5.0 10.0 0.00 0.00 0.00 68 1025.0
20240619225951 82 111 5.0 10.0 0.00 0.00 0.00 68 1025.0
20240619225443 82 106 5.0 9.0 0.00 0.00 0.00 68 1025.0
20240619225210 82 97 5.0 9.0 0.00 0.00 0.00 69 1024.9
20240619224432 82 102 5.0 10.0 0.00 0.00 0.00 68 1025.0
20240619224156 82 67 5.0 11.0 0.00 0.00 0.00 68 1024.9
20240619223420 82 64 5.0 15.0 0.00 0.00 0.00 65 1024.9
20240619222913 82 84 5.0 15.0 0.00 0.00 0.00 65 1024.9
20240619222644 82 70 5.0 12.0 0.00 0.00 0.00 64 1024.9
20240619221914 83 93 6.0 13.0 0.00 0.00 0.00 65 1024.8
20240619221412 83 78 6.0 13.0 0.00 0.00 0.00 64 1024.9
20240619220911 83 113 6.0 11.0 0.00 0.00 0.00 65 1024.8
20240619220411 83 113 6.0 13.0 0.00 0.00 0.00 63 1024.7
20240619215909 83 100 6.0 11.0 0.00 0.00 0.00 63 1024.8
20240619215409 83 109 6.0 11.0 0.00 0.00 0.00 64 1024.9
20240619214910 83 90 6.0 13.0 0.00 0.00 0.00 63 1024.9
20240619214408 83 102 5.0 13.0 0.00 0.00 0.00 64 1024.9
20240619213908 83 101 6.0 11.0 0.00 0.00 0.00 62 1024.9
20240619213407 83 90 6.0 11.0 0.00 0.00 0.00 62 1024.9
20240619212907 83 84 5.0 12.0 0.00 0.00 0.00 61 1024.9
20240619212407 84 87 7.0 13.0 0.00 0.00 0.00 61 1024.9
20240619211907 84 68 7.0 14.0 0.00 0.00 0.00 61 1025.0
20240619211400 84 86 7.0 14.0 0.00 0.00 0.00 60 1024.9
20240619210857 84 86 7.0 16.0 0.00 0.00 0.00 60 1025.0
20240619210629 84 99 6.0 16.0 0.00 0.00 0.00 60 1024.9
20240619205858 84 106 6.0 13.0 0.00 0.00 0.00 59 1024.9
20240619205357 85 103 7.0 12.0 0.00 0.00 0.00 58 1024.9
20240619205129 85 99 7.0 12.0 0.00 0.00 0.00 58 1024.9
20240619204357 85 66 7.0 15.0 0.00 0.00 0.00 57 1025.1
20240619203857 85 109 6.0 15.0 0.00 0.00 0.00 57 1025.2
20240619203358 85 49 6.0 11.0 0.00 0.00 0.00 57 1025.2
20240619203129 84 124 6.0 11.0 0.00 0.00 0.00 52 1025.3
20240619202358 84 111 6.0 10.0 0.00 0.00 0.00 60 1025.4
20240619201900 84 59 6.0 14.0 0.00 0.00 0.00 60 1025.4
20240619201357 84 98 7.0 14.0 0.00 0.00 0.00 60 1025.4
20240619200902 84 101 6.0 14.0 0.00 0.00 0.00 61 1025.5
20240619200857 83 107 7.0 14.0 0.00 0.00 0.00 62 1025.4
20240619200120 84 94 6.0 12.0 0.00 0.00 0.00 61 1025.4
20240619195343 85 136 7.0 13.0 0.00 0.00 0.00 60 1025.5
20240619194837 85 80 7.0 14.0 0.00 0.00 0.00 58 1025.6
20240619194337 85 97 6.0 14.0 0.00 0.00 0.00 59 1025.6
20240619193837 85 97 5.0 13.0 0.00 0.00 0.00 60 1025.6
20240619193608 85 109 6.0 13.0 0.00 0.00 0.00 59 1025.7
20240619192837 85 103 8.0 13.0 0.00 0.00 0.00 58 1025.7
20240619192610 85 104 7.0 15.0 0.00 0.00 0.00 55 1025.7
20240619191837 86 45 7.0 15.0 0.00 0.00 0.00 55 1025.6
20240619191337 86 135 8.0 13.0 0.00 0.00 0.00 58 1025.6
20240619190837 86 147 7.0 13.0 0.00 0.00 0.00 57 1025.7
20240619190335 85 109 8.0 14.0 0.00 0.00 0.00 60 1025.6
20240619185838 85 105 9.0 14.0 0.00 0.00 0.00 59 1025.6
20240619185335 85 103 8.0 16.0 0.00 0.00 0.00 62 1025.5
20240619184836 85 107 7.0 16.0 0.00 0.00 0.00 57 1025.5
20240619184333 85 96 6.0 12.0 0.00 0.00 0.00 58 1025.5
20240619183833 85 130 7.0 12.0 0.00 0.00 0.00 59 1025.5
20240619183333 85 84 6.0 15.0 0.00 0.00 0.00 55 1025.5
20240619182833 85 99 7.0 15.0 0.00 0.00 0.00 61 1025.4
20240619182332 85 93 8.0 15.0 0.00 0.00 0.00 60 1025.5
20240619181829 85 81 7.0 15.0 0.00 0.00 0.00 61 1025.5
20240619181332 85 114 7.0 12.0 0.00 0.00 0.00 60 1025.5
20240619180829 85 86 7.0 12.0 0.00 0.00 0.00 57 1025.6
20240619180329 85 111 7.0 12.0 0.00 0.00 0.00 60 1025.6
20240619175827 85 107 7.0 13.0 0.00 0.00 0.00 57 1025.7
20240619175328 85 89 7.0 13.0 0.00 0.00 0.00 61 1025.8
20240619174827 85 113 6.0 11.0 0.00 0.00 0.00 57 1025.8
20240619174329 85 109 8.0 13.0 0.00 0.00 0.00 57 1025.8
20240619174325 85 88 7.0 13.0 0.00 0.00 0.00 59 1025.8
20240619173326 85 120 7.0 13.0 0.00 0.00 0.00 53 1025.8
20240619172823 85 139 7.0 13.0 0.00 0.00 0.00 56 1025.9
20240619172555 85 50 7.0 13.0 0.00 0.00 0.00 57 1025.9
20240619171823 85 81 7.0 13.0 0.00 0.00 0.00 60 1025.9
20240619171323 85 109 6.0 13.0 0.00 0.00 0.00 60 1025.9
20240619170821 85 74 6.0 11.0 0.00 0.00 0.00 59 1025.9
20240619170549 84 122 6.0 12.0 0.00 0.00 0.00 61 1026.0
20240619165819 84 93 6.0 13.0 0.00 0.00 0.00 59 1026.0
20240619165319 84 64 7.0 13.0 0.00 0.00 0.00 60 1026.0
20240619164819 83 55 6.0 13.0 0.00 0.00 0.00 64 1026.0
20240619164317 83 87 5.0 13.0 0.00 0.00 0.00 62 1025.9
20240619163817 83 52 6.0 12.0 0.00 0.00 0.00 63 1025.9
20240619163318 83 86 6.0 13.0 0.00 0.00 0.00 63 1026.0
20240619162816 83 80 5.0 13.0 0.00 0.00 0.00 62 1026.0
20240619162315 83 56 4.0 10.0 0.00 0.00 0.00 64 1026.0
20240619161813 83 51 5.0 12.0 0.00 0.00 0.00 59 1025.9
20240619161313 84 43 5.0 12.0 0.00 0.00 0.00 57 1026.1
20240619161044 85 75 5.0 10.0 0.00 0.00 0.00 58 1026.0
20240619160313 84 118 5.0 11.0 0.00 0.00 0.00 61 1026.0
20240619155813 84 29 6.0 11.0 0.00 0.00 0.00 59 1025.9
20240619155306 85 81 6.0 11.0 0.00 0.00 0.00 60 1025.8
20240619155032 85 119 6.0 11.0 0.00 0.00 0.00 57 1025.8
20240619154757 85 107 5.0 11.0 0.00 0.00 0.00 56 1025.8
20240619153748 85 79 5.0 12.0 0.00 0.00 0.00 61 1025.8
20240619153242 85 107 5.0 12.0 0.00 0.00 0.00 57 1025.8
20240619152737 84 75 6.0 14.0 0.00 0.00 0.00 59 1025.8
20240619152230 83 78 6.0 14.0 0.00 0.00 0.00 58 1025.8
20240619151724 84 56 6.0 11.0 0.00 0.00 0.00 56 1025.8
20240619151219 84 55 6.0 13.0 0.00 0.00 0.00 56 1025.8
20240619150944 84 77 6.0 15.0 0.00 0.00 0.00 58 1025.8
20240619150209 84 95 6.0 15.0 0.00 0.00 0.00 57 1025.9
20240619145709 84 76 5.0 12.0 0.00 0.00 0.00 58 1025.9
20240619145443 83 84 6.0 12.0 0.00 0.00 0.00 58 1025.8
20240619144707 83 95 5.0 11.0 0.00 0.00 0.00 57 1025.7
20240619144207 83 140 5.0 13.0 0.00 0.00 0.00 59 1025.8
20240619143707 83 66 6.0 13.0 0.00 0.00 0.00 60 1025.7
20240619143206 82 68 7.0 13.0 0.00 0.00 0.00 63 1025.8
20240619142705 82 119 5.0 11.0 0.00 0.00 0.00 62 1025.8
20240619142436 82 97 4.0 10.0 0.00 0.00 0.00 67 1025.8
20240619141703 82 68 4.0 10.0 0.00 0.00 0.00 65 1025.8
20240619141205 83 48 4.0 10.0 0.00 0.00 0.00 63 1025.8
20240619140703 83 53 3.0 8.0 0.00 0.00 0.00 66 1025.9
20240619140203 82 97 3.0 8.0 0.00 0.00 0.00 68 1025.9
20240619135703 80 84 3.0 7.0 0.00 0.00 0.00 67 1025.8
20240619135202 80 93 4.0 8.0 0.00 0.00 0.00 68 1025.8
20240619134657 81 117 5.0 13.0 0.00 0.00 0.00 64 1025.7
20240619134150 82 62 5.0 13.0 0.00 0.00 0.00 64 1025.7
20240619133644 82 109 5.0 12.0 0.00 0.00 0.00 65 1025.7
20240619133139 82 49 4.0 12.0 0.00 0.00 0.00 64 1025.8
20240619132632 81 85 5.0 11.0 0.00 0.00 0.00 68 1025.8
20240619132127 81 86 5.0 10.0 0.00 0.00 0.00 65 1025.8
20240619131620 82 37 5.0 10.0 0.00 0.00 0.00 63 1025.8
20240619131114 82 38 5.0 9.0 0.00 0.00 0.00 62 1025.7
20240619130608 82 45 5.0 9.0 0.00 0.00 0.00 63 1025.6
20240619130103 82 43 4.0 9.0 0.00 0.00 0.00 62 1025.7
20240619125558 81 104 4.0 8.0 0.00 0.00 0.00 65 1025.5
20240619125050 81 61 5.0 10.0 0.00 0.00 0.00 67 1025.5
20240619124815 81 48 5.0 10.0 0.00 0.00 0.00 67 1025.5
20240619124038 81 19 3.0 10.0 0.00 0.00 0.00 66 1025.6
20240619123533 80 45 2.0 6.0 0.00 0.00 0.00 69 1025.7
20240619123027 80 49 3.0 6.0 0.00 0.00 0.00 71 1025.6
20240619122520 80 4 3.0 6.0 0.00 0.00 0.00 72 1025.5
20240619122014 79 76 3.0 7.0 0.00 0.00 0.00 71 1025.4
20240619121740 78 30 4.0 7.0 0.00 0.00 0.00 72 1025.4
20240619121002 78 28 4.0 6.0 0.00 0.00 0.00 73 1025.5
20240619120456 78 22 4.0 7.0 0.00 0.00 0.00 74 1025.4
20240619115952 77 45 4.0 7.0 0.00 0.00 0.00 74 1025.4
20240619115444 77 27 4.0 8.0 0.00 0.00 0.00 76 1025.3
20240619114939 76 30 4.0 8.0 0.00 0.00 0.00 77 1025.4
20240619114433 76 32 4.0 7.0 0.00 0.00 0.00 78 1025.3
20240619114429 75 13 4.0 7.0 0.00 0.00 0.00 79 1025.3
20240619113421 75 5 3.0 6.0 0.00 0.00 0.00 80 1025.2
20240619112915 74 28 3.0 6.0 0.00 0.00 0.00 82 1025.2
20240619112408 74 5 4.0 5.0 0.00 0.00 0.00 82 1025.1
20240619112133 73 345 3.0 5.0 0.00 0.00 0.00 82 1025.1
20240619111629 73 11 3.0 5.0 0.00 0.00 0.00 82 1025.0
20240619110850 72 345 3.0 5.0 0.00 0.00 0.00 83 1024.9
20240619110345 72 5 3.0 6.0 0.00 0.00 0.00 83 1024.8
20240619105839 71 337 3.0 6.0 0.00 0.00 0.00 84 1024.7
20240619105333 71 340 3.0 5.0 0.00 0.00 0.00 85 1024.7
20240619104827 70 38 3.0 5.0 0.00 0.00 0.00 85 1024.6
20240619104320 69 345 3.0 5.0 0.00 0.00 0.00 86 1024.6
20240619103815 69 28 2.0 5.0 0.00 0.00 0.00 86 1024.5
20240619103309 69 52 2.0 5.0 0.00 0.00 0.00 86 1024.5
20240619103034 69 13 3.0 4.0 0.00 0.00 0.00 87 1024.4
20240619102257 69 340 3.0 4.0 0.00 0.00 0.00 87 1024.3
20240619101750 69 11 2.0 4.0 0.00 0.00 0.00 87 1024.3
20240619101246 69 316 2.0 4.0 0.00 0.00 0.00 86 1024.2
20240619100738 69 306 2.0 4.0 0.00 0.00 0.00 86 1024.3
20240619100234 69 1 2.0 4.0 0.00 0.00 0.00 85 1024.2
20240619095727 69 345 2.0 4.0 0.00 0.00 0.00 85 1024.1
20240619095221 69 5 2.0 4.0 0.00 0.00 0.00 85 1024.1
20240619094715 69 35 3.0 4.0 0.00 0.00 0.00 86 1024.1
20240619094209 69 22 3.0 5.0 0.00 0.00 0.00 86 1024.0
20240619093703 69 13 2.0 5.0 0.00 0.00 0.00 86 1023.9
20240619093428 69 27 2.0 4.0 0.00 0.00 0.00 86 1024.0
20240619093152 69 9 3.0 4.0 0.00 0.00 0.00 86 1024.0
20240619092145 69 332 3.0 5.0 0.00 0.00 0.00 87 1024.0
20240619091639 69 330 2.0 5.0 0.00 0.00 0.00 87 1024.0
20240619091132 69 345 2.0 5.0 0.00 0.00 0.00 87 1023.9
20240619090627 69 5 2.0 5.0 0.00 0.00 0.00 87 1023.9
20240619090120 69 330 2.0 5.0 0.00 0.00 0.00 87 1023.9
20240619085615 69 10 2.0 4.0 0.00 0.00 0.00 88 1023.8
20240619085610 69 338 2.0 4.0 0.00 0.00 0.00 88 1023.7
20240619084602 69 336 2.0 3.0 0.00 0.00 0.00 88 1023.7
20240619084056 69 345 2.0 3.0 0.00 0.00 0.00 88 1023.7
20240619083551 69 341 2.0 3.0 0.00 0.00 0.00 88 1023.6
20240619083045 69 1 2.0 3.0 0.00 0.00 0.00 88 1023.7
20240619082539 69 25 1.0 3.0 0.00 0.00 0.00 88 1023.6
20240619082032 69 7 1.0 3.0 0.00 0.00 0.00 88 1023.6
20240619081527 69 337 2.0 3.0 0.00 0.00 0.00 87 1023.6
20240619081020 69 5 2.0 3.0 0.00 0.00 0.00 87 1023.5
20240619080515 69 5 1.0 3.0 0.00 0.00 0.00 86 1023.5
20240619080009 70 5 1.0 3.0 0.00 0.00 0.00 86 1023.3
20240619075503 70 5 2.0 3.0 0.00 0.00 0.00 85 1023.2
20240619074956 70 5 1.0 4.0 0.00 0.00 0.00 85 1023.2
20240619074451 70 345 1.0 4.0 0.00 0.00 0.00 85 1023.2
20240619073945 70 5 2.0 4.0 0.00 0.00 0.00 85 1023.1
20240619073439 71 5 2.0 4.0 0.00 0.00 0.00 85 1023.2
20240619072934 71 345 2.0 3.0 0.00 0.00 0.00 85 1023.2
20240619072433 71 10 1.0 3.0 0.00 0.00 0.00 85 1023.2
20240619072205 71 29 0.0 2.0 0.00 0.00 0.00 84 1023.1
20240619071704 71 29 1.0 3.0 0.00 0.00 0.00 84 1023.0
20240619070933 71 29 2.0 4.0 0.00 0.00 0.00 84 1023.1
20240619070433 72 29 2.0 4.0 0.00 0.00 0.00 84 1023.2
20240619065933 72 336 2.0 4.0 0.00 0.00 0.00 84 1023.2
20240619065433 72 5 2.0 7.0 0.00 0.00 0.00 83 1023.2
20240619064933 72 46 2.0 7.0 0.00 0.00 0.00 84 1023.2
20240619064433 72 99 1.0 4.0 0.00 0.00 0.00 84 1023.3
20240619063933 72 298 2.0 6.0 0.00 0.00 0.00 84 1023.4
20240619063704 72 64 2.0 6.0 0.00 0.00 0.00 84 1023.3
20240619063540 71 94 1.0 4.0 0.00 0.00 0.00 84 1023.3
20240619062433 71 109 3.0 6.0 0.00 0.00 0.00 84 1023.4
20240619061936 71 50 3.0 6.0 0.00 0.00 0.00 85 1023.5
20240619061436 71 290 3.0 6.0 0.00 0.00 0.00 84 1023.4
20240619060934 71 14 3.0 6.0 0.00 0.00 0.00 83 1023.5
20240619060432 71 20 2.0 4.0 0.00 0.00 0.00 83 1023.4
20240619055926 71 35 2.0 4.0 0.00 0.00 0.00 83 1023.5
20240619055420 71 14 2.0 4.0 0.00 0.00 0.00 83 1023.5
20240619054914 71 10 2.0 3.0 0.00 0.00 0.00 83 1023.5
20240619054639 71 345 2.0 4.0 0.00 0.00 0.00 83 1023.5
20240619053902 71 10 2.0 4.0 0.00 0.00 0.00 83 1023.5
20240619053356 72 345 2.0 3.0 0.00 0.00 0.00 82 1023.5
20240619053121 72 335 2.0 3.0 0.00 0.00 0.00 82 1023.4
20240619052343 72 1 1.0 2.0 0.00 0.00 0.00 82 1023.4
20240619051838 72 19 1.0 4.0 0.00 0.00 0.00 81 1023.5
20240619051332 73 37 2.0 5.0 0.00 0.00 0.00 81 1023.5
20240619051057 73 59 3.0 5.0 0.00 0.00 0.00 80 1023.5
20240619050319 73 53 3.0 7.0 0.00 0.00 0.00 81 1023.4
20240619045814 73 86 3.0 7.0 0.00 0.00 0.00 81 1023.5
20240619045308 72 55 4.0 8.0 0.00 0.00 0.00 81 1023.5
20240619045032 72 61 4.0 7.0 0.00 0.00 0.00 81 1023.5
20240619044527 71 34 4.0 7.0 0.00 0.00 0.00 82 1023.5
20240619043750 71 10 4.0 7.0 0.00 0.00 0.00 82 1023.7
20240619043244 70 34 3.0 6.0 0.00 0.00 0.00 84 1023.7
20240619042737 70 16 2.0 4.0 0.00 0.00 0.00 84 1023.7
20240619042231 70 7 2.0 4.0 0.00 0.00 0.00 84 1023.7
20240619041725 70 20 2.0 3.0 0.00 0.00 0.00 83 1023.8
20240619041220 70 10 2.0 3.0 0.00 0.00 0.00 83 1023.8
20240619040714 70 14 2.0 4.0 0.00 0.00 0.00 83 1023.8
20240619040207 70 19 2.0 5.0 0.00 0.00 0.00 83 1023.8
20240619035701 70 1 3.0 5.0 0.00 0.00 0.00 82 1023.9
20240619035201 70 345 3.0 5.0 0.00 0.00 0.00 82 1023.9
20240619034702 71 1 3.0 5.0 0.00 0.00 0.00 82 1023.9
20240619034201 71 2 2.0 5.0 0.00 0.00 0.00 81 1023.9
20240619033701 71 5 2.0 4.0 0.00 0.00 0.00 81 1023.9
20240619033201 71 334 2.0 4.0 0.00 0.00 0.00 80 1024.0
20240619032702 71 345 2.0 3.0 0.00 0.00 0.00 80 1024.0
20240619032203 71 10 2.0 4.0 0.00 0.00 0.00 80 1023.9
20240619031703 71 1 2.0 5.0 0.00 0.00 0.00 80 1024.0
20240619031157 71 7 2.0 4.0 0.00 0.00 0.00 79 1024.0
20240619030658 72 20 2.0 4.0 0.00 0.00 0.00 78 1023.8
20240619030158 72 5 3.0 4.0 0.00 0.00 0.00 78 1023.9
20240619025658 72 4 3.0 4.0 0.00 0.00 0.00 78 1023.9
20240619025157 72 1 3.0 6.0 0.00 0.00 0.00 78 1023.9
20240619024657 72 29 3.0 6.0 0.00 0.00 0.00 78 1023.9